Time,TemperatureF,DewpointF,PressureIn,WindDirection,WindDirectionDegrees,WindSpeedMPH,WindSpeedGustMPH,Humidity,HourlyPrecipIn,Conditions,Clouds,dailyrainin,SoftwareType,DateUTC
2013-01-28 00:04:00,34.0,31.0,30.08,SW,225,5.0,5.0,87,0.00,,,0.00,,2013-01-28 05:04:00,
2013-01-28 00:11:00,34.0,31.0,30.08,SW,225,5.0,5.0,87,0.00,,,0.00,,2013-01-28 05:11:00,
2013-01-28 00:21:00,34.0,31.0,30.07,SSE,157,3.0,5.0,87,0.00,,,0.00,,2013-01-28 05:21:00,
2013-01-28 00:32:00,34.0,31.0,30.08,SSE,157,4.0,5.0,87,0.00,,,0.00,,2013-01-28 05:32:00,
2013-01-28 00:42:00,34.0,31.0,30.08,SSE,157,4.0,5.0,87,0.00,,,0.00,,2013-01-28 05:42:00,
2013-01-28 00:52:00,34.0,31.0,30.09,SE,135,2.0,4.0,88,0.00,,,0.00,,2013-01-28 05:52:00,
2013-01-28 01:02:00,34.0,31.0,30.06,SSE,157,4.0,4.0,88,0.00,,,0.00,,2013-01-28 06:02:00,
2013-01-28 01:11:00,34.0,31.0,30.06,SSE,157,4.0,4.0,88,0.00,,,0.00,,2013-01-28 06:11:00,
2013-01-28 01:22:00,34.0,31.0,30.05,ESE,112,2.0,5.0,88,0.00,,,0.00,,2013-01-28 06:22:00,
2013-01-28 01:32:00,34.0,31.0,30.05,ESE,112,2.0,5.0,88,0.00,,,0.00,,2013-01-28 06:32:00,
2013-01-28 01:42:00,34.0,31.0,30.05,ESE,112,2.0,5.0,88,0.00,,,0.00,,2013-01-28 06:42:00,
2013-01-28 01:52:00,35.0,32.0,30.04,SSE,157,0.0,0.0,88,0.00,,,0.00,,2013-01-28 06:52:00,
2013-01-28 02:03:00,35.0,32.0,30.04,SE,135,0.0,0.0,89,0.00,,,0.00,,2013-01-28 07:03:00,
2013-01-28 02:11:00,35.0,32.0,30.04,SE,135,0.0,0.0,89,0.00,,,0.00,,2013-01-28 07:11:00,
2013-01-28 02:21:00,35.0,32.0,30.03,SSE,157,3.0,3.0,89,0.00,,,0.00,,2013-01-28 07:21:00,
2013-01-28 02:32:00,36.0,33.0,30.02,SSW,202,1.0,3.0,89,0.00,,,0.00,,2013-01-28 07:32:00,
2013-01-28 02:42:00,36.0,33.0,30.02,SSW,202,1.0,3.0,89,0.00,,,0.00,,2013-01-28 07:42:00,
2013-01-28 02:52:00,36.0,33.0,30.03,SW,225,0.0,0.0,89,0.00,,,0.00,,2013-01-28 07:52:00,
2013-01-28 03:01:00,36.0,33.0,30.03,SW,225,0.0,0.0,89,0.00,,,0.00,,2013-01-28 08:01:00,
2013-01-28 03:11:00,36.0,33.0,30.03,SW,225,0.0,0.0,89,0.00,,,0.00,,2013-01-28 08:11:00,
2013-01-28 03:21:00,37.0,34.0,30.02,SSW,202,0.0,0.0,89,0.00,,,0.00,,2013-01-28 08:21:00,
2013-01-28 03:32:00,37.0,34.0,30.02,South,180,0.0,0.0,89,0.00,,,0.00,,2013-01-28 08:32:00,
2013-01-28 03:42:00,37.0,34.0,30.02,South,180,0.0,0.0,89,0.00,,,0.00,,2013-01-28 08:42:00,
2013-01-28 03:52:00,38.0,35.0,30.00,WSW,247,2.0,2.0,89,0.00,,,0.00,,2013-01-28 08:52:00,
2013-01-28 04:02:00,38.0,35.0,30.00,SW,225,0.0,1.0,89,0.00,,,0.00,,2013-01-28 09:02:00,
2013-01-28 04:11:00,38.0,35.0,30.00,SW,225,0.0,1.0,89,0.00,,,0.00,,2013-01-28 09:11:00,
2013-01-28 04:22:00,39.0,36.0,30.00,West,270,3.0,3.0,90,0.00,,,0.00,,2013-01-28 09:22:00,
2013-01-28 04:32:00,40.0,37.0,29.99,WSW,255,3.0,6.0,90,0.00,,,0.00,,2013-01-28 09:32:00,
2013-01-28 04:42:00,40.0,37.0,29.99,WSW,255,3.0,6.0,90,0.00,,,0.00,,2013-01-28 09:42:00,
2013-01-28 04:52:00,41.0,38.0,29.99,WSW,247,3.0,6.0,90,0.00,,,0.00,,2013-01-28 09:52:00,
2013-01-28 05:02:00,41.0,38.0,29.98,West,270,3.0,4.0,90,0.00,,,0.00,,2013-01-28 10:02:00,
2013-01-28 05:11:00,41.0,38.0,29.98,West,270,3.0,4.0,90,0.00,,,0.00,,2013-01-28 10:11:00,
2013-01-28 05:21:00,41.0,38.0,29.98,West,270,2.0,3.0,90,0.00,,,0.00,,2013-01-28 10:21:00,
2013-01-28 05:32:00,41.0,38.0,29.98,WSW,247,7.0,7.0,90,0.00,,,0.00,,2013-01-28 10:32:00,
2013-01-28 05:42:00,41.0,38.0,29.98,WSW,247,7.0,7.0,90,0.00,,,0.00,,2013-01-28 10:42:00,
2013-01-28 05:51:00,41.0,38.0,29.97,West,270,2.0,3.0,90,0.00,,,0.00,,2013-01-28 10:51:00,
2013-01-28 06:02:00,42.0,39.0,29.98,SW,236,1.0,2.0,90,0.00,,,0.00,,2013-01-28 11:02:00,
2013-01-28 06:11:00,42.0,39.0,29.98,SW,236,1.0,2.0,90,0.00,,,0.00,,2013-01-28 11:11:00,
2013-01-28 06:22:00,42.0,39.0,29.98,West,270,0.0,2.0,90,0.00,,,0.00,,2013-01-28 11:22:00,
2013-01-28 06:32:00,42.0,39.0,29.97,SSW,203,2.0,3.0,90,0.00,,,0.00,,2013-01-28 11:32:00,
2013-01-28 06:42:00,42.0,39.0,29.97,SSW,203,2.0,3.0,90,0.00,,,0.00,,2013-01-28 11:42:00,
2013-01-28 06:52:00,42.0,40.0,29.97,SW,225,3.0,6.0,91,0.00,,,0.00,,2013-01-28 11:52:00,
2013-01-28 07:03:00,42.0,39.0,29.97,SW,225,0.0,0.0,90,0.00,,,0.00,,2013-01-28 12:03:00,
2013-01-28 07:12:00,42.0,39.0,29.97,SW,225,0.0,0.0,90,0.00,,,0.00,,2013-01-28 12:12:00,
2013-01-28 07:23:00,42.0,40.0,29.97,SW,225,3.0,3.0,91,0.00,,,0.00,,2013-01-28 12:23:00,
2013-01-28 07:33:00,42.0,40.0,29.97,SSE,157,0.0,8.0,91,0.00,,,0.00,,2013-01-28 12:33:00,
2013-01-28 07:42:00,42.0,40.0,29.97,SSE,157,0.0,8.0,91,0.00,,,0.00,,2013-01-28 12:42:00,
2013-01-28 07:52:00,42.0,40.0,29.96,SSW,202,0.0,3.0,91,0.00,,,0.00,,2013-01-28 12:52:00,
2013-01-28 08:03:00,43.0,41.0,29.96,West,270,0.0,0.0,91,0.00,,,0.00,,2013-01-28 13:03:00,
2013-01-28 08:12:00,43.0,41.0,29.96,West,270,0.0,0.0,91,0.00,,,0.00,,2013-01-28 13:12:00,
2013-01-28 08:23:00,43.0,41.0,29.97,SSW,202,9.0,9.0,91,0.00,,,0.00,,2013-01-28 13:23:00,
2013-01-28 08:33:00,44.0,42.0,29.96,South,180,5.0,5.0,91,0.00,,,0.00,,2013-01-28 13:33:00,
2013-01-28 08:42:00,44.0,42.0,29.96,South,180,5.0,5.0,91,0.00,,,0.00,,2013-01-28 13:42:00,
2013-01-28 08:52:00,44.0,42.0,29.97,SW,225,2.0,5.0,91,0.00,,,0.00,,2013-01-28 13:52:00,
2013-01-28 09:03:00,44.0,42.0,29.97,SW,225,3.0,3.0,91,0.00,,,0.00,,2013-01-28 14:03:00,
2013-01-28 09:12:00,44.0,42.0,29.97,SW,225,3.0,3.0,91,0.00,,,0.00,,2013-01-28 14:12:00,
2013-01-28 09:23:00,44.0,42.0,29.97,WSW,247,2.0,3.0,91,0.00,,,0.00,,2013-01-28 14:23:00,
2013-01-28 09:33:00,45.0,43.0,29.97,WNW,292,5.0,6.0,91,0.00,,,0.00,,2013-01-28 14:33:00,
2013-01-28 09:43:00,45.0,43.0,29.97,WNW,292,5.0,6.0,91,0.00,,,0.00,,2013-01-28 14:43:00,
2013-01-28 09:52:00,45.0,43.0,29.97,SW,225,6.0,8.0,91,0.00,,,0.00,,2013-01-28 14:52:00,
2013-01-28 10:03:00,46.0,44.0,29.97,SSW,212,7.0,9.0,91,0.00,,,0.00,,2013-01-28 15:03:00,
2013-01-28 10:13:00,46.0,44.0,29.97,SSW,212,7.0,9.0,91,0.00,,,0.00,,2013-01-28 15:13:00,
2013-01-28 10:23:00,46.0,44.0,29.97,SW,234,5.0,9.0,91,0.00,,,0.00,,2013-01-28 15:23:00,
2013-01-28 10:33:00,47.0,45.0,29.97,SW,225,3.0,5.0,91,0.00,,,0.00,,2013-01-28 15:33:00,
2013-01-28 10:43:00,47.0,45.0,29.97,SW,225,3.0,5.0,91,0.00,,,0.00,,2013-01-28 15:43:00,
2013-01-28 10:52:00,47.0,45.0,29.98,SSW,206,2.0,5.0,91,0.00,,,0.00,,2013-01-28 15:52:00,
2013-01-28 11:04:00,47.0,45.0,29.98,SW,229,4.0,5.0,91,0.00,,,0.00,,2013-01-28 16:04:00,
2013-01-28 11:12:00,47.0,45.0,29.98,SW,229,4.0,5.0,91,0.00,,,0.00,,2013-01-28 16:12:00,
2013-01-28 11:22:00,47.0,45.0,29.98,SSW,202,2.0,7.0,91,0.00,,,0.00,,2013-01-28 16:22:00,
2013-01-28 11:33:00,46.0,44.0,29.98,SSW,209,3.0,7.0,91,0.00,,,0.00,,2013-01-28 16:33:00,
2013-01-28 11:43:00,46.0,44.0,29.98,SSW,209,3.0,7.0,91,0.00,,,0.00,,2013-01-28 16:43:00,
2013-01-28 11:53:00,45.0,43.0,29.98,SW,225,0.0,7.0,91,0.00,,,0.00,,2013-01-28 16:53:00,
2013-01-28 12:02:00,45.0,43.0,29.98,SW,225,1.0,3.0,91,0.00,,,0.00,,2013-01-28 17:02:00,
2013-01-28 12:12:00,45.0,43.0,29.98,SW,225,1.0,3.0,91,0.00,,,0.00,,2013-01-28 17:12:00,
2013-01-28 12:23:00,44.0,42.0,29.98,SW,231,5.0,7.0,91,0.00,,,0.00,,2013-01-28 17:23:00,
2013-01-28 12:32:00,44.0,42.0,29.98,West,270,2.0,5.0,91,0.00,,,0.00,,2013-01-28 17:32:00,
2013-01-28 12:42:00,44.0,42.0,29.98,West,270,2.0,5.0,91,0.00,,,0.00,,2013-01-28 17:42:00,
2013-01-28 12:53:00,43.0,41.0,29.97,SW,233,3.0,4.0,91,0.00,,,0.00,,2013-01-28 17:53:00,
2013-01-28 13:03:00,43.0,41.0,29.97,SW,225,2.0,7.0,91,0.00,,,0.00,,2013-01-28 18:03:00,
2013-01-28 13:12:00,43.0,41.0,29.97,SW,225,2.0,7.0,91,0.00,,,0.00,,2013-01-28 18:12:00,
2013-01-28 13:23:00,42.0,40.0,29.97,WSW,247,1.0,3.0,91,0.00,,,0.00,,2013-01-28 18:23:00,
2013-01-28 13:33:00,42.0,40.0,29.97,West,270,0.0,7.0,91,0.00,,,0.00,,2013-01-28 18:33:00,
2013-01-28 13:42:00,42.0,40.0,29.97,West,270,0.0,7.0,91,0.00,,,0.00,,2013-01-28 18:42:00,
2013-01-28 13:52:00,41.0,39.0,29.96,South,180,2.0,8.0,91,0.00,,,0.00,,2013-01-28 18:52:00,
2013-01-28 14:02:00,41.0,39.0,29.96,SSW,202,7.0,7.0,91,0.00,,,0.00,,2013-01-28 19:02:00,
2013-01-28 14:12:00,41.0,39.0,29.95,WSW,247,5.0,5.0,91,0.00,,,0.00,,2013-01-28 19:12:00,
2013-01-28 14:22:00,41.0,39.0,29.95,WSW,247,5.0,5.0,91,0.00,,,0.00,,2013-01-28 19:22:00,
2013-01-28 14:33:00,41.0,39.0,29.95,WSW,247,0.0,5.0,91,0.00,,,0.00,,2013-01-28 19:33:00,
2013-01-28 14:42:00,41.0,39.0,29.95,WSW,247,0.0,5.0,91,0.00,,,0.00,,2013-01-28 19:42:00,
2013-01-28 14:52:00,42.0,40.0,29.95,SW,225,1.0,4.0,91,0.00,,,0.00,,2013-01-28 19:52:00,
2013-01-28 15:03:00,42.0,40.0,29.95,WSW,247,0.0,1.0,91,0.00,,,0.00,,2013-01-28 20:03:00,
2013-01-28 15:12:00,42.0,40.0,29.95,WSW,247,0.0,1.0,91,0.00,,,0.00,,2013-01-28 20:12:00,
2013-01-28 15:22:00,42.0,40.0,29.95,WSW,247,2.0,2.0,91,0.00,,,0.00,,2013-01-28 20:22:00,
2013-01-28 15:33:00,43.0,41.0,29.95,SSW,202,1.0,1.0,91,0.00,,,0.00,,2013-01-28 20:33:00,
2013-01-28 15:42:00,43.0,41.0,29.95,SSW,202,1.0,1.0,91,0.00,,,0.00,,2013-01-28 20:42:00,
2013-01-28 15:52:00,43.0,41.0,29.96,WSW,247,2.0,2.0,91,0.00,,,0.00,,2013-01-28 20:52:00,
2013-01-28 16:03:00,44.0,42.0,29.97,West,270,1.0,6.0,91,0.00,,,0.00,,2013-01-28 21:03:00,
2013-01-28 16:12:00,44.0,42.0,29.97,West,270,1.0,6.0,91,0.00,,,0.00,,2013-01-28 21:12:00,
2013-01-28 16:23:00,45.0,43.0,29.97,SW,225,4.0,4.0,91,0.00,,,0.00,,2013-01-28 21:23:00,
2013-01-28 16:33:00,46.0,44.0,29.97,SW,225,1.0,1.0,91,0.00,,,0.00,,2013-01-28 21:33:00,
2013-01-28 16:43:00,46.0,44.0,29.97,SW,225,1.0,1.0,91,0.00,,,0.00,,2013-01-28 21:43:00,
2013-01-28 16:52:00,46.0,44.0,29.98,West,270,0.0,2.0,91,0.00,,,0.00,,2013-01-28 21:52:00,
2013-01-28 17:02:00,47.0,44.0,29.98,SW,225,0.0,0.0,90,0.00,,,0.00,,2013-01-28 22:02:00,
2013-01-28 17:12:00,47.0,44.0,29.98,SW,225,0.0,0.0,90,0.00,,,0.00,,2013-01-28 22:12:00,
2013-01-28 17:23:00,48.0,45.0,29.98,SSW,202,2.0,2.0,91,0.00,,,0.00,,2013-01-28 22:23:00,
2013-01-28 17:33:00,48.0,45.0,29.98,SSW,202,1.0,29.0,91,0.00,,,0.00,,2013-01-28 22:33:00,
2013-01-28 17:42:00,48.0,45.0,29.98,SSW,202,1.0,29.0,91,0.00,,,0.00,,2013-01-28 22:42:00,
2013-01-28 17:52:00,48.0,45.0,29.98,SW,225,3.0,3.0,91,0.00,,,0.00,,2013-01-28 22:52:00,
2013-01-28 18:02:00,48.0,45.0,29.98,SW,225,0.0,0.0,91,0.00,,,0.00,,2013-01-28 23:02:00,
2013-01-28 18:12:00,48.0,45.0,29.98,SW,225,0.0,0.0,91,0.00,,,0.00,,2013-01-28 23:12:00,
2013-01-28 18:22:00,47.0,45.0,29.99,SW,225,0.0,0.0,91,0.00,,,0.00,,2013-01-28 23:22:00,
2013-01-28 18:32:00,47.0,45.0,30.00,SW,225,0.0,0.0,91,0.00,,,0.00,,2013-01-28 23:32:00,
2013-01-28 18:42:00,47.0,45.0,30.00,SW,225,0.0,0.0,91,0.00,,,0.00,,2013-01-28 23:42:00,
2013-01-28 18:52:00,46.0,44.0,30.00,SW,225,0.0,0.0,91,0.00,,,0.00,,2013-01-28 23:52:00,
2013-01-28 19:02:00,46.0,43.0,30.00,SW,225,0.0,0.0,90,0.00,,,0.00,,2013-01-29 00:02:00,
2013-01-28 19:12:00,46.0,43.0,30.00,SW,225,0.0,0.0,90,0.00,,,0.00,,2013-01-29 00:12:00,
2013-01-28 19:22:00,45.0,42.0,30.00,SW,225,0.0,0.0,90,0.00,,,0.00,,2013-01-29 00:22:00,
2013-01-28 19:33:00,45.0,42.0,30.00,SW,225,0.0,0.0,90,0.00,,,0.00,,2013-01-29 00:33:00,
2013-01-28 19:42:00,45.0,42.0,30.00,SW,225,0.0,0.0,90,0.00,,,0.00,,2013-01-29 00:42:00,
2013-01-28 19:52:00,44.0,41.0,30.00,SW,225,0.0,0.0,90,0.00,,,0.00,,2013-01-29 00:52:00,
2013-01-28 20:02:00,44.0,41.0,30.00,SW,225,0.0,0.0,90,0.00,,,0.00,,2013-01-29 01:02:00,
2013-01-28 20:12:00,44.0,41.0,30.00,SW,225,0.0,0.0,90,0.00,,,0.00,,2013-01-29 01:12:00,
2013-01-28 20:23:00,44.0,41.0,30.00,SW,225,0.0,0.0,90,0.00,,,0.00,,2013-01-29 01:23:00,
2013-01-28 20:32:00,44.0,41.0,30.00,SW,225,0.0,0.0,90,0.00,,,0.00,,2013-01-29 01:32:00,
2013-01-28 20:42:00,44.0,41.0,30.00,SW,225,0.0,0.0,90,0.00,,,0.00,,2013-01-29 01:42:00,
2013-01-28 20:53:00,44.0,42.0,30.00,SW,225,0.0,0.0,91,0.00,,,0.00,,2013-01-29 01:53:00,
2013-01-28 21:02:00,44.0,41.0,30.00,SW,225,0.0,0.0,90,0.00,,,0.00,,2013-01-29 02:02:00,
2013-01-28 21:12:00,44.0,41.0,30.00,SW,225,0.0,0.0,90,0.00,,,0.00,,2013-01-29 02:12:00,
2013-01-28 21:22:00,44.0,41.0,30.00,SW,225,0.0,0.0,90,0.00,,,0.00,,2013-01-29 02:22:00,
2013-01-28 21:33:00,44.0,41.0,30.00,SW,225,0.0,0.0,90,0.00,,,0.00,,2013-01-29 02:33:00,
2013-01-28 21:42:00,44.0,41.0,30.00,SW,225,0.0,0.0,90,0.00,,,0.00,,2013-01-29 02:42:00,
2013-01-28 21:53:00,44.0,42.0,30.00,SW,225,0.0,0.0,91,0.00,,,0.00,,2013-01-29 02:53:00,
2013-01-28 22:03:00,44.0,42.0,30.00,SW,225,0.0,0.0,91,0.00,,,0.00,,2013-01-29 03:03:00,
2013-01-28 22:12:00,44.0,42.0,30.00,SW,225,0.0,0.0,91,0.00,,,0.00,,2013-01-29 03:12:00,
2013-01-28 22:22:00,44.0,42.0,30.00,SW,225,0.0,0.0,91,0.00,,,0.00,,2013-01-29 03:22:00,
2013-01-28 22:32:00,44.0,42.0,30.00,SW,225,0.0,0.0,91,0.00,,,0.00,,2013-01-29 03:32:00,
2013-01-28 22:42:00,44.0,42.0,30.00,SW,225,0.0,0.0,91,0.00,,,0.00,,2013-01-29 03:42:00,
2013-01-28 22:52:00,44.0,42.0,30.00,SW,225,0.0,0.0,91,0.00,,,0.00,,2013-01-29 03:52:00,
2013-01-28 23:02:00,44.0,42.0,30.00,SSW,202,0.0,0.0,91,0.00,,,0.00,,2013-01-29 04:02:00,
2013-01-28 23:12:00,44.0,42.0,30.00,SSW,202,0.0,0.0,91,0.00,,,0.00,,2013-01-29 04:12:00,
2013-01-28 23:22:00,44.0,42.0,30.00,SSW,202,0.0,0.0,91,0.00,,,0.00,,2013-01-29 04:22:00,
2013-01-28 23:32:00,44.0,42.0,29.99,SSE,157,0.0,0.0,91,0.00,,,0.00,,2013-01-29 04:32:00,
2013-01-28 23:42:00,44.0,42.0,29.99,SSE,157,0.0,0.0,91,0.00,,,0.00,,2013-01-29 04:42:00,
2013-01-28 23:52:00,44.0,42.0,29.99,SSE,157,0.0,0.0,91,0.00,,,0.00,,2013-01-29 04:52:00,